Powrót do katalogu

STARLINK-5361

AktywnyŁącznośćVLEO
NORAD 57142·PAYLOAD·🇺🇸 United States

Wystrzelony Jun 23, 2023 z Cape Canaveral Space Force Station

Loading…

Następne Przeloty (najbliższe 24 godziny)

TLE

ŚwieżeSource: CelesTrak SupGP

Epoka: Sep 14, 2026, 14:09 UTC

1 57142C 23090AT  26257.59006944  .00031675  00000+0  11473-2 0  2578
2 57142  43.0029 276.2924 0001591 301.9944 145.0193 15.27560325    17

Śledź STARLINK-5361 w czasie rzeczywistym z AllMySat

Download on the App Store